Location: Goettingen
(51.5300°N, 9.9433°E)
Time: 14:02:03
(UTC+02:00)

ISS - Pass Details

Date: 01 July 2022
Orbit: 414 x 420 km, 51.6° (Epoch: 03 July)

Event Time Altitude Azimuth Distance (km) Brightness Sun altitude
Exits shadow 03:22:09 14° 175° (S) 1,296 -1.8 -11.0°
Maximum altitude 03:23:41 18° 142° (SE) 1,118 -1.8 -10.9°
Drops below altitude 10° 03:26:01 10° 98° (E) 1,500 -0.7 -10.7°
Sets 03:28:35 0° 79° (ENE) 2,369 0.7 -10.5°
